Pagina principale
METAR-TAF:

METAR-TAF

Aeroporti :

Tarvisio, Italia

latitudine: 46-30N, longitudine: 013-35E, altezza: 777 m

Osservazione

Il bollettino è stato emesso 2 ore e 48 minuti fa, alle 17:55 UTC
Vento 1 kt da nord
Temperature 10°C
Umidità 100%
Pressione 1008 hPa
Visibilità 10 km o più
Poco nuvoloso ad un'altezza di 3600 ft

METAR: LIVO 251755Z 35001KT 9999 FEW036 10/10 Q1008 RMK BKN BKN080 VIS MIN 9999

Ora: 22:43 (20:43 UTC)


TAF: mancante

Osservazioni e previsioni meteorologiche di più di 4000 aeroporti (messaggi METAR e TAF).

Le stazioni disponibili sono rappresentate dai dischi gialli e rossi sulla carta.

Puntare il mouse per vedere il nome della stazione.

Clicca sopra per visualizzare le osservazioni e previsioni meteorologiche.

Per cambiare la mappa : fare clic sui pulsanti verdi con una croce nera per ingrandire, il pulsante verde con un trattino per diminuire, o sulla freccia verde per le mappe adiacenti.


METAR-TAF: